This is the latest recevied weather packets stored in our database for station/object AA9VI-10. If no packets are shown the sender has not sent any weather packets the latest 10 day(s).
| Time | Temp. | Humidity | Pressure | Rain* | Wind** | Luminosity | Snow |
|---|---|---|---|---|---|---|---|
| 1777506017 | 8.89° C | 70% | 1015 hPa | 0 mm | - | - | - |
| 1777505416 | 8.89° C | 70% | 1014.9 hPa | 0 mm | - | - | - |
| 1777504817 | 8.89° C | 69% | 1014.8 hPa | 0 mm | - | - | - |
| 1777504217 | 8.89° C | 69% | 1014.8 hPa | 0 mm | - | - | - |
| 1777503617 | 9.44° C | 68% | 1014.8 hPa | 0 mm | - | - | - |
| 1777503016 | 9.44° C | 68% | 1014.7 hPa | 0 mm | - | - | - |
| 1777502417 | 10° C | 67% | 1014.5 hPa | 0 mm | - | - | - |
| 1777501817 | 10° C | 69% | 1014.4 hPa | 0 mm | - | - | - |
| 1777501217 | 10° C | 70% | 1014.5 hPa | 0 mm | - | - | - |
| 1777500616 | 10° C | 72% | 1014.5 hPa | 0 mm | - | - | - |
| 1777500017 | 10° C | 71% | 1014.3 hPa | 0 mm | - | - | - |
| 1777499416 | 10° C | 73% | 1014.3 hPa | 0 mm | - | - | - |
| 1777498816 | 9.44° C | 74% | 1014.3 hPa | 0 mm | - | - | - |
| 1777498216 | 9.44° C | 74% | 1014.2 hPa | 0 mm | - | - | - |
| 1777497616 | 9.44° C | 74% | 1014.2 hPa | 0 mm | - | - | - |
| 1777497017 | 9.44° C | 77% | 1014.1 hPa | 0 mm | - | - | - |
| 1777496417 | 8.89° C | 78% | 1014.2 hPa | 0 mm | - | - | - |
| 1777495816 | 8.89° C | 78% | 1014.4 hPa | 0 mm | - | - | - |
| 1777495217 | 8.89° C | 78% | 1014.3 hPa | 0 mm | - | - | - |
| 1777494621 | 8.89° C | 78% | 1014.3 hPa | 0 mm | - | - | - |
| 1777494016 | 9.44° C | 76% | 1014.3 hPa | 0 mm | - | - | - |
| 1777493417 | 10° C | 71% | 1014.2 hPa | 0 mm | - | - | - |
| 1777492817 | 10° C | 69% | 1014 hPa | 0 mm | - | - | - |
| 1777492217 | 10.56° C | 68% | 1014.1 hPa | 0 mm | - | - | - |
| 1777491616 | 11.11° C | 67% | 1014 hPa | 0 mm | - | - | - |
* Rain latest hour (hover to see other rain measurements)
** Current wind speed in m/s (hover to see current wind gust speed)